DW6016 Weather Reports


Display with metric or nautical units.
time (UTC)temp
F
wind
direction
speed
MPH
gust
MPH
rain 1hr
in
rain 24hr
in
rain mn
in
humidity
%
barometer
mb
20260901175657 65 304 3.0 3.0 0.00 0.00 0.00 82 1013.4
20260901175157 64 268 1.0 1.0 0.00 0.00 0.00 84 1013.3
20260901174652 63 310 3.0 3.0 0.00 0.00 0.00 84 1013.3
20260901174148 63 26 1.0 1.0 0.00 0.00 0.00 86 1013.3
20260901173643 62 309 0.0 0.0 0.00 0.00 0.00 89 1013.3
20260901173138 62 314 1.0 1.0 0.00 0.00 0.00 89 1013.2
20260901172634 62 314 1.0 1.0 0.00 0.00 0.00 89 1013.3
20260901172132 62 312 2.0 2.0 0.00 0.00 0.00 89 1013.1
20260901171632 62 322 0.0 0.0 0.00 0.00 0.00 90 1013.1
20260901171131 61 313 0.0 0.0 0.00 0.00 0.00 91 1013.0
20260901170631 61 311 0.0 0.0 0.00 0.00 0.00 92 1013.2
20260901170126 61 302 0.0 0.0 0.00 0.00 0.00 92 1013.1
20260901165625 61 318 0.0 0.0 0.00 0.00 0.00 92 1013.1
20260901165120 61 311 0.0 0.0 0.00 0.00 0.00 93 1013.3
20260901164616 60 313 0.0 0.0 0.00 0.00 0.00 94 1013.0
20260901164111 60 278 0.0 0.0 0.00 0.00 0.00 94 1013.2
20260901163606 60 317 0.0 0.0 0.00 0.00 0.00 94 1013.1
20260901163059 60 319 0.0 0.0 0.00 0.00 0.00 93 1013.3
20260901162555 60 326 0.0 0.0 0.00 0.00 0.00 92 1013.2
20260901162054 60 313 0.0 1.0 0.00 0.00 0.00 91 1013.2
20260901161553 60 318 0.0 0.0 0.00 0.00 0.00 91 1013.1
20260901161053 60 320 0.0 0.0 0.00 0.00 0.00 91 1012.9
20260901160549 60 329 0.0 0.0 0.00 0.00 0.00 91 1013.0
20260901160044 60 318 0.0 1.0 0.00 0.00 0.00 91 1013.2
20260901155543 60 323 0.0 0.0 0.00 0.00 0.00 92 1013.0
20260901155039 60 309 1.0 1.0 0.00 0.00 0.00 91 1013.0
20260901154539 60 317 0.0 0.0 0.00 0.00 0.00 91 1013.1
20260901154034 60 308 0.0 0.0 0.00 0.00 0.00 91 1013.3
20260901153529 60 302 0.0 0.0 0.00 0.00 0.00 91 1013.2
20260901153029 60 317 1.0 1.0 0.00 0.00 0.00 90 1013.1
20260901152529 60 324 0.0 0.0 0.00 0.00 0.00 90 1013.2
20260901152028 60 311 0.0 1.0 0.00 0.00 0.00 89 1013.0
20260901151524 60 307 0.0 0.0 0.00 0.00 0.00 88 1012.8
20260901151023 60 312 0.0 0.0 0.00 0.00 0.00 87 1012.9
20260901150521 60 314 0.0 0.0 0.00 0.00 0.00 87 1012.8
20260901150020 60 311 0.0 1.0 0.00 0.00 0.00 87 1012.8
20260901145513 60 320 0.0 0.0 0.00 0.00 0.00 87 1012.7
20260901145013 60 318 0.0 0.0 0.00 0.00 0.00 86 1012.7
20260901144508 60 308 0.0 0.0 0.00 0.00 0.00 86 1012.7
20260901144003 60 305 0.0 1.0 0.00 0.00 0.00 86 1012.7
20260901143459 60 314 0.0 0.0 0.00 0.00 0.00 86 1012.6
20260901142955 60 314 0.0 1.0 0.00 0.00 0.00 86 1012.8
20260901142450 60 311 0.0 0.0 0.00 0.00 0.00 86 1012.6
20260901141945 60 314 0.0 0.0 0.00 0.00 0.00 86 1012.7
20260901141444 60 288 0.0 0.0 0.00 0.00 0.00 87 1012.5
20260901140940 60 286 0.0 0.0 0.00 0.00 0.00 87 1012.6
20260901140437 60 286 0.0 0.0 0.00 0.00 0.00 87 1012.5
20260901135932 59 252 1.0 2.0 0.00 0.00 0.00 87 1012.7
20260901135427 59 310 0.0 0.0 0.00 0.00 0.00 87 1012.4
20260901134923 59 292 0.0 0.0 0.00 0.00 0.00 88 1012.3
20260901134419 59 308 0.0 0.0 0.00 0.00 0.00 88 1012.2
20260901133918 59 308 0.0 0.0 0.00 0.00 0.00 88 1012.3
20260901133418 59 308 0.0 0.0 0.00 0.00 0.00 88 1012.3
20260901132916 59 302 0.0 0.0 0.00 0.00 0.00 88 1012.5
20260901132411 59 303 0.0 0.0 0.00 0.00 0.00 89 1012.3
20260901131910 59 303 0.0 0.0 0.00 0.00 0.00 89 1012.3
20260901131410 59 303 0.0 0.0 0.00 0.00 0.00 89 1012.4
20260901130906 59 304 0.0 0.0 0.00 0.00 0.00 90 1012.4
20260901130400 58 303 0.0 0.0 0.00 0.00 0.00 90 1012.3
20260901125858 58 302 0.0 0.0 0.00 0.00 0.00 90 1012.3
20260901125357 58 285 0.0 0.0 0.00 0.00 0.00 90 1012.4
20260901124852 58 285 0.0 0.0 0.00 0.00 0.00 90 1012.3
20260901124347 58 285 0.0 0.0 0.00 0.00 0.00 90 1012.2
20260901123847 58 285 0.0 0.0 0.00 0.00 0.00 90 1012.3
20260901123342 58 285 0.0 0.0 0.00 0.00 0.00 90 1012.0
20260901122840 58 280 0.0 1.0 0.00 0.00 0.00 90 1012.2
20260901122335 58 294 0.0 0.0 0.00 0.00 0.00 90 1012.3
20260901121834 58 294 0.0 0.0 0.00 0.00 0.00 90 1012.1
20260901121330 58 293 0.0 0.0 0.00 0.00 0.00 90 1012.3
20260901120825 58 293 0.0 0.0 0.00 0.00 0.00 90 1012.3
20260901120319 58 330 0.0 0.0 0.00 0.00 0.00 90 1012.2
20260901115815 58 330 0.0 0.0 0.00 0.00 0.00 90 1012.3
20260901115310 58 331 0.0 0.0 0.00 0.00 0.00 90 1012.2
20260901114808 58 331 0.0 0.0 0.00 0.00 0.00 90 1012.2
20260901114302 58 307 0.0 0.0 0.00 0.00 0.00 90 1012.3
20260901113801 58 289 0.0 0.0 0.00 0.00 0.00 91 1012.1
20260901113255 58 296 0.0 0.0 0.00 0.00 0.00 91 1012.3
20260901112750 58 297 0.0 0.0 0.00 0.00 0.00 91 1012.2
20260901112249 58 296 0.0 0.0 0.00 0.00 0.00 91 1012.2
20260901111744 58 296 0.0 1.0 0.00 0.00 0.00 91 1012.0
20260901111243 57 300 0.0 0.0 0.00 0.00 0.00 91 1012.0
20260901110737 57 306 0.0 1.0 0.00 0.00 0.00 92 1012.2
20260901110233 57 316 0.0 0.0 0.00 0.00 0.00 92 1012.0
20260901105730 57 316 0.0 0.0 0.00 0.00 0.00 91 1012.1
20260901105229 57 316 0.0 0.0 0.00 0.00 0.00 90 1012.1
20260901104725 58 316 0.0 0.0 0.00 0.00 0.00 90 1012.1
20260901104226 58 308 0.0 0.0 0.00 0.00 0.00 90 1011.9
20260901103725 58 307 1.0 1.0 0.00 0.00 0.00 90 1011.8
20260901103220 58 300 0.0 0.0 0.00 0.00 0.00 89 1011.9
20260901102715 58 301 0.0 0.0 0.00 0.00 0.00 89 1011.9
20260901102214 58 302 0.0 0.0 0.00 0.00 0.00 89 1011.9
20260901101711 58 301 0.0 0.0 0.00 0.00 0.00 89 1011.9
20260901101211 58 288 0.0 0.0 0.00 0.00 0.00 90 1012.2
20260901100705 58 302 0.0 0.0 0.00 0.00 0.00 90 1011.8
20260901100159 58 304 0.0 0.0 0.00 0.00 0.00 90 1012.1
20260901095658 57 322 0.0 0.0 0.00 0.00 0.00 90 1011.9
20260901095156 57 322 0.0 1.0 0.00 0.00 0.00 91 1011.8
20260901094651 57 322 0.0 0.0 0.00 0.00 0.00 90 1011.7
20260901094150 58 322 0.0 0.0 0.00 0.00 0.00 90 1012.0
20260901093645 58 323 0.0 0.0 0.00 0.00 0.00 90 1011.9
20260901093144 58 317 0.0 0.0 0.00 0.00 0.00 90 1011.8
20260901092640 58 317 0.0 0.0 0.00 0.00 0.00 90 1011.5
20260901092136 58 317 0.0 0.0 0.00 0.00 0.00 90 1011.5
20260901091632 58 318 0.0 0.0 0.00 0.00 0.00 90 1011.6
20260901091126 58 306 0.0 0.0 0.00 0.00 0.00 90 1011.6
20260901090621 57 306 0.0 0.0 0.00 0.00 0.00 90 1011.3
20260901090117 58 306 0.0 0.0 0.00 0.00 0.00 89 1011.5
20260901085612 58 306 0.0 0.0 0.00 0.00 0.00 89 1011.5
20260901085108 58 306 0.0 0.0 0.00 0.00 0.00 88 1011.3
20260901084604 58 306 0.0 0.0 0.00 0.00 0.00 88 1011.4
20260901084100 59 306 0.0 0.0 0.00 0.00 0.00 87 1011.1
20260901083554 59 306 0.0 0.0 0.00 0.00 0.00 86 1011.3
20260901083052 59 306 0.0 0.0 0.00 0.00 0.00 86 1011.1
20260901082547 59 306 0.0 0.0 0.00 0.00 0.00 86 1011.3
20260901082043 59 295 0.0 0.0 0.00 0.00 0.00 86 1011.4
20260901081538 60 295 0.0 0.0 0.00 0.00 0.00 86 1011.4
20260901081033 60 295 0.0 0.0 0.00 0.00 0.00 86 1011.5
20260901080532 60 294 0.0 0.0 0.00 0.00 0.00 86 1011.4
20260901080032 60 295 1.0 1.0 0.00 0.00 0.00 86 1011.3
20260901075528 60 294 0.0 0.0 0.00 0.00 0.00 86 1011.3
20260901075027 60 293 0.0 0.0 0.00 0.00 0.00 85 1011.3
20260901074526 60 293 0.0 0.0 0.00 0.00 0.00 84 1011.1
20260901074022 61 293 0.0 0.0 0.00 0.00 0.00 83 1011.1
20260901073518 61 293 0.0 0.0 0.00 0.00 0.00 82 1011.0
20260901073013 62 293 0.0 0.0 0.00 0.00 0.00 82 1010.9
20260901072508 62 293 0.0 0.0 0.00 0.00 0.00 81 1010.8
20260901072003 62 288 0.0 0.0 0.00 0.00 0.00 80 1010.8
20260901071503 63 287 0.0 0.0 0.00 0.00 0.00 79 1010.8
20260901071001 63 283 0.0 1.0 0.00 0.00 0.00 79 1010.7
20260901070457 63 286 0.0 0.0 0.00 0.00 0.00 78 1010.7
20260901065955 64 291 0.0 0.0 0.00 0.00 0.00 77 1010.6
20260901065451 64 279 0.0 0.0 0.00 0.00 0.00 77 1010.7
20260901064940 64 261 1.0 1.0 0.00 0.00 0.00 77 1010.6
20260901064436 64 295 0.0 1.0 0.00 0.00 0.00 76 1010.3
20260901063934 65 295 0.0 1.0 0.00 0.00 0.00 76 1010.3
20260901063430 65 278 1.0 1.0 0.00 0.00 0.00 75 1010.3
20260901062926 65 305 0.0 0.0 0.00 0.00 0.00 75 1010.2
20260901062421 65 321 0.0 1.0 0.00 0.00 0.00 75 1010.1
20260901061917 65 299 0.0 0.0 0.00 0.00 0.00 74 1009.9
20260901061413 65 294 0.0 0.0 0.00 0.00 0.00 74 1010.0
20260901060907 66 282 1.0 1.0 0.00 0.00 0.00 73 1009.9
20260901060403 66 270 1.0 1.0 0.00 0.00 0.00 73 1009.9
20260901055902 66 295 0.0 1.0 0.00 0.00 0.00 72 1009.8
20260901055359 66 297 0.0 0.0 0.00 0.00 0.00 72 1009.7
20260901054855 66 299 0.0 0.0 0.00 0.00 0.00 71 1009.8
20260901054352 67 286 1.0 1.0 0.00 0.00 0.00 71 1009.8
20260901053848 66 285 1.0 1.0 0.00 0.00 0.00 71 1009.7
20260901053343 66 296 0.0 0.0 0.00 0.00 0.00 72 1009.8
20260901052838 66 291 0.0 0.0 0.00 0.00 0.00 72 1009.6
20260901052334 66 306 1.0 1.0 0.00 0.00 0.00 72 1009.4
20260901051832 66 314 0.0 0.0 0.00 0.00 0.00 72 1009.6
20260901051327 65 295 0.0 0.0 0.00 0.00 0.00 73 1009.5
20260901050823 66 295 0.0 0.0 0.00 0.00 0.00 72 1009.4
20260901050318 66 295 0.0 0.0 0.00 0.00 0.00 71 1009.4
20260901045813 66 295 0.0 0.0 0.00 0.00 0.00 71 1009.4
20260901045307 66 295 0.0 0.0 0.00 0.00 0.00 71 1009.3
20260901044803 67 295 0.0 0.0 0.00 0.00 0.00 70 1009.2
20260901044259 67 295 0.0 0.0 0.00 0.00 0.00 69 1009.2
20260901043754 67 295 0.0 0.0 0.00 0.00 0.00 70 1009.1
20260901043251 67 295 0.0 0.0 0.00 0.00 0.00 70 1009.1
20260901042750 66 295 0.0 0.0 0.00 0.00 0.00 71 1008.9
20260901042245 67 295 0.0 0.0 0.00 0.00 0.00 70 1008.9
20260901041740 67 295 0.0 0.0 0.00 0.00 0.00 70 1008.9
20260901041240 67 295 0.0 0.0 0.00 0.00 0.00 69 1008.9
20260901040735 67 295 0.0 0.0 0.00 0.00 0.00 69 1008.8
20260901040234 68 295 0.0 0.0 0.00 0.00 0.00 68 1008.6
20260901035733 68 295 0.0 0.0 0.00 0.00 0.00 67 1008.5
20260901035232 68 295 0.0 0.0 0.00 0.00 0.00 67 1008.5
20260901034731 68 295 0.0 0.0 0.00 0.00 0.00 67 1008.4
20260901034226 69 295 0.0 0.0 0.00 0.00 0.00 66 1008.3
20260901033726 69 295 0.0 0.0 0.00 0.00 0.00 66 1008.3
20260901033225 68 295 0.0 0.0 0.00 0.00 0.00 67 1008.2
20260901032724 69 295 0.0 0.0 0.00 0.00 0.00 65 1008.0
20260901032218 69 295 0.0 0.0 0.00 0.00 0.00 64 1008.0
20260901031714 70 295 0.0 0.0 0.00 0.00 0.00 63 1007.9
20260901031210 71 295 0.0 0.0 0.00 0.00 0.00 62 1008.0
20260901030704 72 295 0.0 0.0 0.00 0.00 0.00 60 1007.8
20260901030159 72 295 0.0 0.0 0.00 0.00 0.00 60 1008.1
20260901025654 71 295 0.0 0.0 0.00 0.00 0.00 61 1008.0
20260901025149 72 295 0.0 0.0 0.00 0.00 0.00 60 1007.9
20260901024648 73 295 0.0 0.0 0.00 0.00 0.00 58 1008.0
20260901024148 73 295 0.0 0.0 0.00 0.00 0.00 57 1008.0
20260901023646 74 295 0.0 0.0 0.00 0.00 0.00 53 1007.9
20260901023141 75 295 0.0 0.0 0.00 0.00 0.00 52 1007.9
20260901022636 76 295 0.0 0.0 0.00 0.00 0.00 50 1007.9
20260901022131 77 295 0.0 0.0 0.00 0.00 0.00 50 1008.1
20260901021627 77 296 0.0 0.0 0.00 0.00 0.00 48 1007.9
20260901021122 78 296 0.0 0.0 0.00 0.00 0.00 48 1007.8
20260901020618 79 296 0.0 0.0 0.00 0.00 0.00 47 1007.7
20260901020113 79 294 0.0 0.0 0.00 0.00 0.00 47 1007.9
20260901015608 80 294 0.0 0.0 0.00 0.00 0.00 46 1007.9
20260901015108 80 293 0.0 0.0 0.00 0.00 0.00 46 1007.9
20260901014603 81 301 0.0 0.0 0.00 0.00 0.00 46 1007.6
20260901014059 81 301 0.0 0.0 0.00 0.00 0.00 45 1007.6
20260901013554 81 302 0.0 0.0 0.00 0.00 0.00 45 1007.7
20260901013050 81 303 0.0 0.0 0.00 0.00 0.00 46 1007.8
20260901012550 81 302 0.0 0.0 0.00 0.00 0.00 45 1007.8
20260901012045 81 304 0.0 0.0 0.00 0.00 0.00 47 1008.1
20260901011542 82 304 0.0 0.0 0.00 0.00 0.00 45 1007.8
20260901011039 82 300 0.0 0.0 0.00 0.00 0.00 45 1007.9
20260901010534 82 311 0.0 0.0 0.00 0.00 0.00 44 1007.9
20260901010033 82 311 0.0 0.0 0.00 0.00 0.00 45 1007.7
20260901005528 83 311 0.0 0.0 0.00 0.00 0.00 43 1007.6
20260901005024 83 305 1.0 1.0 0.00 0.00 0.00 44 1007.7
20260901004523 83 317 0.0 0.0 0.00 0.00 0.00 44 1008.0
20260901004018 83 277 0.0 1.0 0.00 0.00 0.00 43 1007.8
20260901003514 83 318 0.0 0.0 0.00 0.00 0.00 44 1007.9
20260901003012 83 302 0.0 0.0 0.00 0.00 0.00 44 1007.9
20260901002511 83 207 1.0 2.0 0.00 0.00 0.00 44 1008.0
20260901002006 83 270 1.0 2.0 0.00 0.00 0.00 43 1007.9
20260901001501 83 292 0.0 0.0 0.00 0.00 0.00 44 1007.9
20260901000956 83 295 0.0 0.0 0.00 0.00 0.00 45 1007.8
20260901000451 83 294 0.0 0.0 0.00 0.00 0.00 45 1007.9
20260831235950 83 307 0.0 0.0 0.00 0.00 0.00 42 1007.8
20260831235445 83 310 0.0 0.0 0.00 0.00 0.00 40 1008.0
20260831234941 83 303 0.0 0.0 0.00 0.00 0.00 40 1007.7
20260831234435 83 313 0.0 0.0 0.00 0.00 0.00 38 1008.0
20260831233931 83 302 4.0 5.0 0.00 0.00 0.00 37 1008.0
20260831233426 83 323 2.0 2.0 0.00 0.00 0.00 38 1008.1
20260831232921 83 302 1.0 2.0 0.00 0.00 0.00 39 1008.1
20260831232417 83 314 0.0 0.0 0.00 0.00 0.00 39 1008.0
20260831231913 83 315 2.0 3.0 0.00 0.00 0.00 41 1007.9
20260831231409 83 296 0.0 0.0 0.00 0.00 0.00 41 1007.9
20260831230905 82 292 0.0 0.0 0.00 0.00 0.00 42 1008.0
20260831230359 82 340 2.0 2.0 0.00 0.00 0.00 40 1008.0
20260831225853 82 296 3.0 5.0 0.00 0.00 0.00 41 1008.2
20260831225349 82 306 2.0 2.0 0.00 0.00 0.00 41 1007.9
20260831224844 82 322 0.0 0.0 0.00 0.00 0.00 41 1008.3
20260831224339 82 318 0.0 0.0 0.00 0.00 0.00 41 1008.3
20260831223833 82 305 2.0 2.0 0.00 0.00 0.00 42 1008.3
20260831223330 82 259 1.0 1.0 0.00 0.00 0.00 41 1008.3
20260831222826 81 323 0.0 0.0 0.00 0.00 0.00 42 1008.2
20260831222321 82 314 0.0 0.0 0.00 0.00 0.00 41 1008.4
20260831221821 81 312 0.0 1.0 0.00 0.00 0.00 42 1008.3
20260831221317 81 308 0.0 1.0 0.00 0.00 0.00 42 1008.4
20260831220812 80 351 0.0 0.0 0.00 0.00 0.00 43 1008.6
20260831220307 81 314 0.0 1.0 0.00 0.00 0.00 44 1008.6
20260831215802 81 100 1.0 1.0 0.00 0.00 0.00 43 1008.8
20260831215258 80 272 1.0 1.0 0.00 0.00 0.00 43 1008.8
20260831214754 80 286 1.0 1.0 0.00 0.00 0.00 46 1008.9
20260831214252 80 309 3.0 3.0 0.00 0.00 0.00 45 1009.1
20260831213747 80 83 0.0 1.0 0.00 0.00 0.00 46 1009.0
20260831213243 80 11 1.0 1.0 0.00 0.00 0.00 45 1009.1
20260831212738 79 292 4.0 6.0 0.00 0.00 0.00 45 1009.2
20260831212235 79 301 0.0 2.0 0.00 0.00 0.00 48 1009.1
20260831211732 79 283 0.0 1.0 0.00 0.00 0.00 45 1009.1
20260831211228 79 322 0.0 0.0 0.00 0.00 0.00 47 1009.2
20260831210723 78 322 0.0 0.0 0.00 0.00 0.00 47 1009.1
20260831210219 77 311 1.0 1.0 0.00 0.00 0.00 48 1009.4
20260831205718 77 316 3.0 3.0 0.00 0.00 0.00 49 1009.2
20260831205214 78 315 2.0 2.0 0.00 0.00 0.00 49 1009.2
20260831204709 78 300 1.0 1.0 0.00 0.00 0.00 49 1009.3
20260831204208 78 312 4.0 5.0 0.00 0.00 0.00 48 1009.5
20260831203708 77 299 2.0 2.0 0.00 0.00 0.00 50 1009.4
20260831203202 78 301 3.0 3.0 0.00 0.00 0.00 50 1009.7
20260831202700 78 303 3.0 3.0 0.00 0.00 0.00 49 1009.6
20260831202155 78 310 2.0 2.0 0.00 0.00 0.00 51 1009.7
20260831201655 78 309 0.0 0.0 0.00 0.00 0.00 51 1009.5
20260831201155 77 220 1.0 1.0 0.00 0.00 0.00 51 1009.7
20260831200651 76 297 1.0 2.0 0.00 0.00 0.00 53 1009.6
20260831200151 76 303 0.0 0.0 0.00 0.00 0.00 52 1009.7
20260831195646 77 314 3.0 3.0 0.00 0.00 0.00 51 1009.9
20260831195141 77 275 2.0 3.0 0.00 0.00 0.00 52 1010.2
20260831194636 76 304 0.0 0.0 0.00 0.00 0.00 52 1010.2
20260831194131 76 287 2.0 2.0 0.00 0.00 0.00 51 1010.2
20260831193626 75 294 1.0 1.0 0.00 0.00 0.00 53 1010.2
20260831193121 75 302 0.0 1.0 0.00 0.00 0.00 55 1010.1
20260831192616 75 295 1.0 2.0 0.00 0.00 0.00 55 1010.4
20260831192112 75 314 3.0 5.0 0.00 0.00 0.00 54 1010.6
20260831191608 75 303 2.0 3.0 0.00 0.00 0.00 54 1010.4
20260831191103 75 288 2.0 3.0 0.00 0.00 0.00 55 1010.4
20260831190558 75 311 1.0 2.0 0.00 0.00 0.00 56 1010.7
20260831190056 75 275 0.0 1.0 0.00 0.00 0.00 56 1010.7
20260831185553 75 302 0.0 0.0 0.00 0.00 0.00 55 1010.6
20260831185048 74 285 1.0 1.0 0.00 0.00 0.00 56 1011.0
20260831184548 74 301 1.0 1.0 0.00 0.00 0.00 57 1011.0
20260831184044 73 282 2.0 2.0 0.00 0.00 0.00 59 1010.9
20260831183543 73 289 2.0 3.0 0.00 0.00 0.00 58 1010.8
20260831183042 73 163 1.0 2.0 0.00 0.00 0.00 60 1011.1
20260831182537 71 290 0.0 1.0 0.00 0.00 0.00 61 1011.2
20260831182033 71 200 1.0 2.0 0.00 0.00 0.00 62 1011.2
20260831181532 71 298 1.0 1.0 0.00 0.00 0.00 62 1011.0
20260831181032 71 282 1.0 1.0 0.00 0.00 0.00 61 1011.5
20260831180527 70 303 0.0 1.0 0.00 0.00 0.00 65 1011.5
20260831180023 70 293 0.0 1.0 0.00 0.00 0.00 63 1011.3